When you browse on this site, cookies collect data to enhance your experience and personalize the content and advertising you see.
Visit our Privacy Policy to learn more. By continuing to use the site, you agree to this use of cookies and data.
  • In Spain
  • List of Countries
  • For 7 days
  • Water Temperature
  • Weather Map
  • Weather Widgets
  • user-avatar
    Login

    Hourly Weather Beja

    Today, 28 May, Thursday

    Time Temperature Precipitation Wind Pressure Humidity
    00:00 +20°C° 0 mm 2 mps 743 mmHg 63%
    01:00 +19°C° 0 mm 2 mps 743 mmHg 63%
    02:00 +20°C° 0 mm 1 mps 743 mmHg 63%
    03:00 +20°C° 0 mm 1 mps 743 mmHg 63%
    04:00 +20°C° 0 mm 1 mps 743 mmHg 63%
    05:00 +20°C° 0 mm 1 mps 743 mmHg 64%
    06:00 +21°C° 0 mm 2 mps 743 mmHg 55%
    07:00 +25°C° 0 mm 2 mps 743 mmHg 46%
    08:00 +27°C° 0 mm 3 mps 743 mmHg 37%
    09:00 +29°C° 0 mm 3 mps 743 mmHg 34%
    10:00 +30°C° 0 mm 3 mps 743 mmHg 31%
    11:00 +33°C° 0 mm 3 mps 743 mmHg 29%
    12:00 +34°C° 0 mm 3 mps 743 mmHg 27%
    13:00 +35°C° 0 mm 4 mps 742 mmHg 26%
    14:00 +36°C° 0 mm 4 mps 742 mmHg 24%
    15:00 +35°C° 0 mm 4 mps 741 mmHg 26%
    16:00 +34°C° 0 mm 4 mps 741 mmHg 28%
    17:00 +33°C° 0 mm 4 mps 741 mmHg 30%
    18:00 +30°C° 0 mm 3 mps 741 mmHg 38%
    19:00 +27°C° 0 mm 3 mps 741 mmHg 45%
    20:00 +25°C° 0 mm 3 mps 742 mmHg 52%
    21:00 +24°C° 0 mm 3 mps 741 mmHg 54%
    22:00 +23°C° 0 mm 2 mps 741 mmHg 56%
    23:00 +21°C° 0 mm 2 mps 741 mmHg 59%

    Tomorrow, 29 May, Friday

    Time Temperature Precipitation Wind Pressure Humidity
    00:00 +20°C° 0 mm 2 mps 740 mmHg 63%
    01:00 +20°C° 0 mm 2 mps 740 mmHg 67%
    02:00 +19°C° 0 mm 2 mps 740 mmHg 71%
    03:00 +19°C° 0 mm 2 mps 740 mmHg 72%
    04:00 +20°C° 0 mm 1 mps 740 mmHg 72%
    05:00 +18°C° 0 mm 0 mps 740 mmHg 73%
    06:00 +20°C° 0 mm 0 mps 740 mmHg 65%
    07:00 +24°C° 0 mm 1 mps 740 mmHg 56%
    08:00 +27°C° 0 mm 1 mps 741 mmHg 48%
    09:00 +29°C° 0 mm 1 mps 740 mmHg 43%
    10:00 +31°C° 0 mm 1 mps 740 mmHg 37%
    11:00 +33°C° 0 mm 1 mps 740 mmHg 32%
    12:00 +34°C° 0 mm 1 mps 740 mmHg 30%
    13:00 +35°C° 0 mm 2 mps 739 mmHg 28%
    14:00 +36°C° 0 mm 2 mps 739 mmHg 25%
    15:00 +34°C° 0 mm 3 mps 739 mmHg 30%
    16:00 +33°C° 0 mm 4 mps 738 mmHg 35%
    17:00 +30°C° 0 mm 5 mps 738 mmHg 41%
    18:00 +28°C° 0 mm 4 mps 738 mmHg 47%
    19:00 +26°C° 0 mm 4 mps 738 mmHg 54%
    20:00 +22°C° 0 mm 3 mps 738 mmHg 61%
    21:00 +22°C° 0 mm 3 mps 738 mmHg 61%
    22:00 +23°C° 0 mm 2 mps 738 mmHg 62%
    23:00 +21°C° 0 mm 2 mps 738 mmHg 63%

    Day after tomorrow, 30 May, Saturday

    Time Temperature Precipitation Wind Pressure Humidity
    00:00 +21°C° 0 mm 2 mps 738 mmHg 63%
    01:00 +21°C° 0 mm 1 mps 738 mmHg 63%
    02:00 +21°C° 0 mm 1 mps 738 mmHg 62%
    03:00 +21°C° 0 mm 1 mps 738 mmHg 64%
    04:00 +21°C° 0 mm 1 mps 738 mmHg 66%
    05:00 +21°C° 0 mm 1 mps 738 mmHg 68%
    06:00 +23°C° 0 mm 1 mps 738 mmHg 60%
    07:00 +25°C° 0 mm 1 mps 738 mmHg 52%
    08:00 +27°C° 0 mm 2 mps 738 mmHg 44%
    09:00 +29°C° 0 mm 1 mps 738 mmHg 39%
    10:00 +31°C° 0 mm 1 mps 738 mmHg 34%
    11:00 +34°C° 0 mm 1 mps 738 mmHg 29%
    12:00 +35°C° 0 mm 2 mps 738 mmHg 27%
    13:00 +36°C° 0 mm 2 mps 737 mmHg 25%
    14:00 +36°C° 0 mm 2 mps 737 mmHg 23%
    15:00 +34°C° 0 mm 3 mps 737 mmHg 28%
    16:00 +32°C° 0 mm 4 mps 736 mmHg 33%
    17:00 +29°C° 0 mm 6 mps 736 mmHg 38%
    18:00 +27°C° 0 mm 5 mps 736 mmHg 44%
    19:00 +25°C° 0 mm 4 mps 736 mmHg 49%
    20:00 +22°C° 0 mm 3 mps 737 mmHg 55%
    21:00 +22°C° 0 mm 3 mps 737 mmHg 57%
    22:00 +21°C° 0 mm 2 mps 737 mmHg 60%
    23:00 +21°C° 0 mm 2 mps 737 mmHg 63%

    31 May, Sunday

    Time Temperature Precipitation Wind Pressure Humidity
    00:00 +21°C° 0 mm 2 mps 736 mmHg 62%
    01:00 +20°C° 0 mm 2 mps 736 mmHg 62%
    02:00 +21°C° 0 mm 1 mps 736 mmHg 62%
    03:00 +21°C° 0 mm 1 mps 736 mmHg 63%
    04:00 +21°C° 0 mm 1 mps 736 mmHg 64%
    05:00 +21°C° 0 mm 1 mps 736 mmHg 64%
    06:00 +23°C° 0 mm 1 mps 736 mmHg 54%
    07:00 +25°C° 0 mm 2 mps 737 mmHg 43%
    08:00 +27°C° 0 mm 3 mps 737 mmHg 33%
    09:00 +28°C° 0 mm 4 mps 737 mmHg 32%
    10:00 +29°C° 0 mm 5 mps 737 mmHg 31%
    11:00 +30°C° 0 mm 6 mps 737 mmHg 31%
    12:00 +30°C° 0 mm 6 mps 737 mmHg 33%
    13:00 +30°C° 0 mm 6 mps 737 mmHg 35%
    14:00 +32°C° 0 mm 6 mps 737 mmHg 38%
    15:00 +30°C° 0 mm 5 mps 737 mmHg 40%
    16:00 +29°C° 0 mm 5 mps 737 mmHg 43%
    17:00 +28°C° 0 mm 4 mps 737 mmHg 45%
    18:00 +26°C° 0 mm 4 mps 737 mmHg 52%
    19:00 +24°C° 0 mm 3 mps 737 mmHg 59%
    20:00 +21°C° 0 mm 2 mps 738 mmHg 66%
    21:00 +20°C° 0 mm 2 mps 738 mmHg 70%
    22:00 +19°C° 0 mm 2 mps 738 mmHg 75%
    23:00 +19°C° 0 mm 1 mps 738 mmHg 79%

    1 June, Monday

    Time Temperature Precipitation Wind Pressure Humidity
    00:00 +19°C° 0 mm 1 mps 738 mmHg 82%
    01:00 +18°C° 0 mm 1 mps 738 mmHg 84%
    02:00 +18°C° 0 mm 1 mps 738 mmHg 86%
    03:00 +18°C° 0 mm 1 mps 738 mmHg 87%
    04:00 +17°C° 0 mm 2 mps 738 mmHg 88%
    05:00 +17°C° 0 mm 2 mps 738 mmHg 88%
    06:00 +19°C° 0 mm 2 mps 738 mmHg 80%
    07:00 +21°C° 0 mm 2 mps 739 mmHg 71%
    08:00 +24°C° 0 mm 2 mps 739 mmHg 62%
    09:00 +26°C° 0 mm 2 mps 739 mmHg 55%
    10:00 +28°C° 0 mm 2 mps 739 mmHg 48%
    11:00 +29°C° 0 mm 2 mps 739 mmHg 41%
    12:00 +30°C° 0 mm 2 mps 739 mmHg 38%
    13:00 +31°C° 0 mm 2 mps 739 mmHg 35%
    14:00 +32°C° 0 mm 2 mps 739 mmHg 32%
    15:00 +31°C° 0 mm 3 mps 739 mmHg 36%
    16:00 +30°C° 0 mm 4 mps 739 mmHg 41%
    17:00 +29°C° 0 mm 4 mps 738 mmHg 46%
    18:00 +27°C° 0 mm 4 mps 739 mmHg 56%
    19:00 +24°C° 0 mm 3 mps 739 mmHg 66%
    20:00 +21°C° 0 mm 3 mps 739 mmHg 77%
    21:00 +20°C° 0 mm 3 mps 739 mmHg 80%
    22:00 +19°C° 0 mm 3 mps 739 mmHg 83%
    23:00 +18°C° 0 mm 2 mps 739 mmHg 87%

    2 June, Tuesday

    Time Temperature Precipitation Wind Pressure Humidity
    00:00 +18°C° 0 mm 2 mps 738 mmHg 87%
    01:00 +18°C° 0 mm 2 mps 738 mmHg 88%
    02:00 +18°C° 0 mm 2 mps 738 mmHg 88%
    03:00 +18°C° 0 mm 2 mps 738 mmHg 88%
    04:00 +19°C° 0 mm 1 mps 738 mmHg 87%
    05:00 +19°C° 0 mm 1 mps 738 mmHg 86%
    06:00 +20°C° 0 mm 2 mps 738 mmHg 77%
    07:00 +23°C° 0 mm 2 mps 738 mmHg 68%
    08:00 +25°C° 0 mm 2 mps 738 mmHg 59%
    09:00 +27°C° 0 mm 3 mps 738 mmHg 53%
    10:00 +28°C° 0 mm 3 mps 738 mmHg 48%
    11:00 +30°C° 0 mm 3 mps 738 mmHg 43%
    12:00 +30°C° 0 mm 4 mps 738 mmHg 41%
    13:00 +32°C° 0 mm 4 mps 737 mmHg 39%
    14:00 +32°C° 0 mm 5 mps 737 mmHg 38%
    15:00 +29°C° 0 mm 5 mps 737 mmHg 44%
    16:00 +27°C° 0 mm 6 mps 736 mmHg 50%
    17:00 +26°C° 0 mm 6 mps 736 mmHg 56%
    18:00 +23°C° 0 mm 5 mps 736 mmHg 65%
    19:00 +21°C° 0 mm 4 mps 736 mmHg 74%
    20:00 +19°C° 0 mm 3 mps 736 mmHg 83%
    21:00 +18°C° 0 mm 3 mps 736 mmHg 86%
    22:00 +18°C° 0 mm 3 mps 736 mmHg 88%
    23:00 +17°C° 0 mm 3 mps 736 mmHg 91%
    Show more